GFSMW_sfc_temp_057.txt.gz
Temp
70 70 70 70 68 66 66 65 68 68 69 67 66 65 65 66 67 69 71 71 70 71 69 68 69 69 69 70 70 69 68 68 68 68 67 68 70 69 69 70 70 72 72
67 69 68 68 67 67 68 67 68 67 68 69 67 66 65 66 67 69 69 70 70 70 70 69 69 70 69 70 70 70 68 68 68 66 64 62 65 66 68 68 69 69 70
67 68 68 67 68 68 68 67 67 67 68 70 66 65 66 65 65 66 69 70 71 71 70 71 70 70 69 69 70 70 69 67 67 68 65 61 60 62 67 68 68 69 69
70 68 68 66 68 69 69 68 68 69 71 69 67 66 64 63 64 67 68 70 72 71 72 71 71 70 71 70 70 70 69 67 66 66 68 66 65 61 59 67 67 68 68
69 68 68 69 70 72 70 70 69 71 70 68 68 67 66 66 67 67 68 68 69 72 73 71 70 69 69 69 69 69 68 68 67 66 66 65 65 64 63 62 64 66 67
69 70 70 70 70 72 72 71 68 71 70 68 68 70 69 69 67 66 65 66 67 68 70 71 69 70 68 69 68 68 69 68 68 67 66 65 64 62 62 63 63 63 65
71 70 69 69 69 70 71 71 70 69 70 70 70 70 69 69 67 66 65 66 66 66 67 69 69 69 69 69 68 68 68 67 66 66 66 67 66 65 64 63 64 63 64
73 72 71 70 71 72 71 72 70 69 70 70 70 70 69 68 66 66 65 66 66 66 67 68 68 69 69 68 68 67 67 66 66 66 66 66 66 66 65 64 64 62 63
73 72 72 70 70 72 72 71 70 70 69 70 69 70 69 68 66 66 66 66 66 68 67 68 68 68 68 68 67 65 65 65 65 65 66 66 66 67 66 65 69 64 60
73 72 71 72 72 71 72 71 71 70 69 69 68 70 69 68 67 66 66 66 66 67 67 67 67 67 66 66 65 64 65 64 64 64 65 65 65 66 66 66 65 66 64
71 73 73 73 73 73 71 71 70 69 68 68 68 69 68 69 67 66 66 66 66 66 66 66 66 66 65 64 63 63 63 63 63 63 64 64 64 64 65 65 66 64 63
70 71 72 71 70 70 70 70 69 69 68 68 69 69 68 68 68 66 66 66 66 66 66 66 65 65 64 63 63 63 62 62 61 61 62 63 65 62 62 62 63 62 62
69 69 69 69 68 69 69 69 69 69 68 68 68 68 67 67 67 67 66 66 66 66 65 65 65 64 64 63 62 61 60 60 60 60 61 62 62 60 59 59 60 61 63
70 68 67 68 68 68 68 69 69 69 67 68 67 67 66 66 66 67 67 66 66 65 64 64 64 64 64 63 61 60 59 59 59 59 60 61 61 59 58 58 61 62 61
68 68 68 67 67 67 68 68 69 68 67 67 67 67 67 67 67 67 67 67 66 66 64 63 62 62 64 64 60 59 58 58 58 58 60 61 64 63 61 58 57 61 60
70 70 68 68 66 67 68 68 69 68 67 67 66 67 67 67 67 67 68 67 66 64 64 62 62 61 65 61 62 61 58 58 57 57 57 58 62 62 62 62 61 59 57
70 69 68 68 67 68 68 68 68 68 67 67 67 68 68 66 66 67 66 66 65 64 63 62 61 60 60 59 60 62 59 58 57 57 56 59 60 59 59 61 62 61 62
71 70 68 68 67 68 68 68 68 67 67 66 66 68 67 66 66 66 66 66 65 65 63 61 60 59 59 58 58 61 59 58 58 57 56 55 55 55 56 55 54 54 55
70 70 71 69 66 68 68 68 67 67 66 66 66 66 66 65 65 64 64 64 64 65 63 62 61 61 58 56 56 59 57 56 56 56 55 55 55 57 57 55 53 52 52
70 70 69 68 67 66 68 67 66 66 65 64 65 65 64 64 64 63 62 62 64 64 65 63 62 60 62 54 54 58 57 55 54 54 54 58 56 55 55 54 53 52 50
66 67 67 66 66 67 67 65 64 64 64 64 63 63 63 62 63 63 62 61 62 64 63 64 63 61 59 59 52 55 59 58 54 53 53 53 54 52 52 53 54 54 52
65 66 65 64 65 66 65 62 63 62 63 62 62 61 62 62 63 62 62 61 61 61 64 63 62 62 61 56 52 52 56 57 57 55 54 54 52 50 49 51 52 51 54
64 64 64 64 64 64 65 64 64 63 63 61 62 63 61 61 60 61 62 61 60 61 63 63 63 62 62 59 52 51 53 55 58 57 55 53 49 49 50 52 51 51 52
63 64 64 63 63 64 65 64 65 65 65 63 62 62 62 61 60 59 59 59 62 62 63 63 63 63 62 59 55 55 56 55 58 57 55 54 53 53 53 53 52 52 50
62 63 63 62 61 61 61 61 62 62 62 62 62 62 62 61 59 55 56 56 56 55 57 61 63 63 62 61 57 55 57 58 57 53 52 51 51 51 51 50 50 50 49
62 61 61 61 60 60 60 60 60 61 60 59 58 58 58 57 56 56 55 50 49 46 44 43 46 60 53 49 50 48 49 47 48 54 53 53 52 52 52 51 50 50 53

GFSMW_sfc_temp_060.txt.gz
Temp
70 70 70 70 67 67 66 65 66 69 69 67 66 65 66 68 69 70 70 72 71 72 70 70 70 70 70 71 71 71 69 69 69 70 70 70 71 71 72 73 74 75 76
66 68 68 68 67 67 66 65 67 68 69 69 67 67 66 67 68 70 69 70 71 72 71 70 70 70 70 70 71 71 68 68 70 69 68 66 68 70 70 71 72 72 74
65 67 67 67 67 67 68 67 68 68 68 70 67 66 67 67 67 68 69 70 72 72 72 72 71 71 70 70 71 71 70 69 70 70 69 63 62 65 69 69 69 70 70
68 67 67 66 68 69 69 68 68 67 68 69 68 68 65 65 66 67 70 70 73 73 72 71 71 71 70 70 70 70 70 69 68 68 69 69 68 64 63 67 68 69 70
70 68 68 68 69 71 70 69 68 69 71 69 68 67 67 68 68 69 69 70 70 72 73 72 72 71 70 71 70 72 70 70 69 69 68 68 68 68 66 63 65 67 66
71 70 70 69 69 71 71 70 69 70 70 69 68 70 69 68 68 68 68 68 69 70 72 71 71 70 70 70 71 71 71 70 70 69 69 68 67 66 66 65 65 64 64
69 69 69 68 68 70 70 71 68 69 70 69 69 70 70 70 69 68 67 67 68 69 70 71 70 70 71 71 71 71 70 70 69 69 68 69 69 68 67 66 65 64 65
69 70 70 70 69 70 71 72 69 70 70 70 70 70 69 69 69 68 67 68 68 69 70 70 71 71 71 70 70 69 69 69 69 69 68 69 69 69 68 67 66 63 63
70 71 71 71 71 70 71 71 71 70 69 70 69 69 69 69 68 68 68 68 68 70 70 70 70 70 70 69 69 69 69 68 68 68 69 69 69 69 69 69 72 67 61
71 72 72 71 71 71 72 71 72 71 70 70 69 70 69 69 68 68 68 68 69 69 70 70 70 69 69 69 68 67 67 67 67 67 68 68 68 69 69 69 68 68 66
70 72 72 72 72 72 71 71 71 70 70 69 69 69 69 69 68 68 68 69 69 69 69 69 69 68 68 67 67 66 67 66 66 67 67 67 68 68 68 68 68 67 64
70 72 72 71 70 70 70 71 70 70 70 69 69 69 69 69 68 68 69 68 68 69 69 69 68 68 67 66 67 66 66 65 65 65 67 67 68 66 68 69 66 64 64
69 70 70 69 69 69 70 70 70 71 70 69 69 69 69 68 67 68 69 69 69 69 68 68 68 67 67 66 65 65 65 64 64 64 66 65 66 64 64 65 64 63 64
68 69 67 67 68 69 69 70 70 71 69 69 69 68 68 68 68 68 68 68 69 68 67 67 68 67 67 66 65 64 63 63 63 63 65 65 65 64 62 64 64 64 63
66 67 67 66 67 68 69 69 70 69 69 69 68 68 68 69 69 68 68 68 68 68 67 67 66 67 67 67 64 63 63 63 62 63 65 65 65 63 63 64 63 63 62
66 68 69 68 67 68 69 70 69 69 69 68 68 69 68 68 68 68 68 68 67 66 66 65 65 65 68 61 61 63 63 63 62 62 62 63 64 63 62 62 62 63 61
67 68 69 69 68 69 70 69 69 69 68 68 69 69 69 68 67 67 67 66 65 65 64 63 65 64 65 59 60 62 63 63 62 61 62 64 64 63 63 61 62 62 62
69 70 69 68 68 69 69 69 69 69 68 67 68 68 68 68 67 67 66 66 66 65 64 62 62 63 64 58 57 61 63 63 63 62 62 62 61 62 62 62 61 61 62
69 70 69 69 68 69 69 69 68 68 67 67 67 68 68 67 67 67 66 66 66 66 63 63 61 60 62 56 55 60 62 62 62 62 61 62 61 57 56 61 59 58 59
70 69 69 69 68 68 69 68 67 67 66 67 67 67 67 66 65 65 64 65 65 65 65 62 61 59 61 55 52 59 63 61 60 59 60 58 60 55 54 59 58 57 58
67 68 68 68 68 68 68 67 66 66 67 66 65 65 66 65 65 64 64 63 63 64 64 63 62 62 60 61 52 52 62 62 60 61 60 61 54 51 51 53 58 58 57
65 65 65 64 65 66 66 64 64 64 65 64 64 63 63 64 64 65 64 63 63 63 63 64 62 62 61 55 53 51 54 58 61 61 61 60 52 49 49 52 53 51 56
64 65 65 65 65 64 65 64 64 64 63 62 62 63 63 63 63 63 64 63 62 62 63 62 62 62 62 60 52 52 51 53 60 62 60 54 49 48 50 50 50 51 60
63 64 64 64 64 64 64 65 65 65 64 62 64 63 63 63 62 61 61 61 61 62 63 64 63 63 63 62 60 56 56 54 56 58 59 56 54 53 56 56 54 59 59
64 65 64 63 63 63 63 64 64 65 65 64 63 63 62 62 61 59 59 59 59 58 60 59 60 62 63 63 57 56 57 58 57 57 56 54 55 56 56 57 58 57 57
63 63 62 62 61 62 61 62 62 63 62 61 61 60 61 60 60 58 59 52 50 47 45 43 47 56 52 48 47 47 48 50 50 54 54 55 56 56 56 56 56 57 57

GFSMW_sfc_temp_063.txt.gz
Temp
80 80 77 77 76 76 75 75 75 76 76 77 77 73 76 73 71 73 77 78 77 74 72 71 75 78 77 80 79 79 77 79 75 70 77 80 79 81 82 75 77 85 85
76 76 76 77 76 77 76 75 76 77 76 78 77 77 75 74 77 76 73 72 75 75 72 71 72 77 79 78 79 77 77 75 69 68 69 69 73 80 78 78 78 81 84
75 77 75 75 76 77 76 76 76 77 77 77 76 75 76 76 76 76 74 71 71 71 74 79 79 79 79 80 79 79 77 71 70 71 72 70 74 74 76 73 73 74 74
79 79 74 74 77 79 79 77 77 77 77 77 76 75 76 76 78 78 78 75 74 73 75 77 76 77 76 77 77 78 77 75 69 74 77 77 78 75 68 73 70 71 72
80 78 76 77 78 79 80 79 78 77 77 78 76 77 75 77 74 77 77 77 75 75 74 72 72 73 73 71 70 72 70 72 75 74 73 72 72 74 75 68 67 69 68
79 79 79 78 78 80 80 80 77 76 77 77 76 76 76 74 73 72 76 79 79 80 77 73 72 73 72 73 73 74 78 78 77 78 77 75 72 72 72 71 68 66 65
79 77 75 77 77 79 80 80 78 77 78 77 77 77 77 73 73 77 79 78 80 80 78 79 72 72 73 73 73 76 77 77 75 75 76 75 75 76 75 72 68 67 65
79 79 80 80 79 80 80 80 79 77 79 78 77 77 77 75 76 79 79 79 80 81 79 79 80 77 75 78 77 79 77 79 78 75 75 75 74 76 77 75 74 64 63
80 81 82 82 81 81 81 81 79 78 79 78 77 77 78 77 78 77 77 79 77 79 79 79 79 79 79 75 76 78 73 74 76 76 75 75 76 74 77 77 79 74 63
81 83 82 81 83 83 82 82 81 79 79 78 78 78 79 78 77 76 76 77 77 77 77 78 78 77 77 77 76 76 75 73 78 77 75 74 74 74 74 77 79 73 69
82 83 83 82 82 84 83 82 81 80 77 78 78 78 78 79 77 77 77 77 77 76 76 77 77 77 77 76 76 75 75 75 74 74 73 73 73 73 72 75 75 71 66
81 83 83 83 82 83 82 81 80 80 80 79 78 78 78 78 78 77 77 77 76 76 77 77 76 76 76 75 75 74 75 75 74 74 74 74 77 71 72 71 71 70 66
80 81 82 81 81 81 80 80 81 82 82 79 78 78 78 78 77 77 77 77 77 77 77 77 76 75 75 75 75 75 74 74 74 74 75 75 75 70 72 73 70 66 65
79 81 80 79 79 79 80 81 82 84 82 80 79 78 78 78 78 78 77 77 77 77 77 77 76 75 75 75 74 73 73 74 74 73 74 75 75 72 69 72 70 69 66
78 79 79 78 78 78 79 80 82 81 81 79 79 78 79 79 78 77 77 77 77 77 76 73 76 76 76 77 74 74 73 73 73 73 74 73 70 65 69 71 70 69 66
78 79 79 79 77 79 80 81 81 80 80 79 78 78 77 77 77 77 77 76 74 73 73 69 72 75 78 60 62 70 74 72 73 72 72 72 68 65 63 64 65 68 66
79 78 79 80 78 79 80 80 80 80 79 78 78 77 77 76 76 76 75 75 73 72 71 70 67 68 74 60 60 64 74 73 73 72 73 74 73 70 71 63 63 63 63
79 80 81 81 79 79 80 81 80 78 77 77 77 77 77 76 76 75 74 74 74 72 72 65 65 64 67 58 57 61 73 72 72 72 72 72 70 70 71 71 71 70 70
79 80 82 81 79 81 80 79 79 78 77 77 77 77 77 76 75 72 70 71 71 70 69 67 63 60 63 57 55 61 72 71 71 72 70 71 70 59 59 71 69 69 70
77 79 80 79 79 79 79 77 77 77 77 78 77 77 77 75 71 70 69 70 69 70 67 66 68 60 61 54 53 59 74 71 72 70 69 59 66 55 55 71 70 69 69
73 79 78 75 75 75 76 76 76 76 77 77 76 75 75 74 74 73 72 72 71 70 70 68 67 62 60 60 53 52 71 72 71 71 70 72 55 52 51 55 70 69 68
68 71 68 66 67 68 71 72 73 73 75 73 73 73 72 73 73 72 70 70 70 69 68 68 66 65 64 56 52 52 53 61 67 67 69 70 52 49 49 55 56 51 59
69 71 68 65 64 63 65 65 65 69 70 70 68 67 68 68 69 68 66 66 69 70 68 66 70 70 66 65 52 50 52 54 62 69 67 58 49 48 50 51 51 50 68
70 70 66 63 61 63 65 65 65 66 67 67 67 69 69 69 71 72 72 72 66 65 66 65 64 65 67 66 65 59 55 54 59 61 66 63 60 57 62 60 58 67 69
69 70 68 65 65 66 66 66 66 67 66 66 68 69 69 68 70 70 69 69 69 65 66 65 63 62 64 64 57 59 61 61 59 59 64 63 65 65 65 66 67 67 68
68 69 69 68 66 67 66 66 67 68 68 68 70 72 73 73 72 71 72 53 53 48 45 45 51 62 53 47 43 45 45 47 49 57 59 59 63 63 64 63 65 67 64

GFSMW_sfc_temp_069.txt.gz
Temp
98 96 93 92 90 90 88 86 85 84 85 83 83 85 86 87 84 83 81 81 83 81 79 75 82 82 81 81 84 82 81 83 82 79 86 88 88 88 90 87 90 86 88
97 94 90 89 88 88 87 85 84 83 85 89 87 85 83 87 84 85 81 81 81 81 80 80 74 79 76 76 77 75 81 84 84 79 77 77 80 81 86 81 85 86 84
95 92 89 88 89 88 87 86 85 85 86 89 87 85 84 81 82 81 81 82 82 81 79 78 76 74 73 72 74 76 79 76 80 80 77 68 68 68 77 81 83 80 82
97 93 90 87 89 90 90 87 86 86 87 86 88 85 85 77 80 85 84 84 82 82 81 80 78 73 72 79 73 78 78 77 75 77 80 76 72 66 65 72 80 83 80
97 93 92 90 90 92 91 89 86 85 87 86 87 86 84 86 86 87 82 81 81 80 78 72 77 73 75 77 78 78 78 77 75 75 72 71 70 70 68 66 73 78 76
96 95 95 92 90 92 92 91 86 84 86 86 85 84 83 83 81 77 78 81 83 82 79 76 75 74 74 76 74 78 78 77 76 73 70 70 72 75 74 72 73 70 66
95 93 92 89 89 90 91 91 86 83 85 85 85 84 83 82 80 80 84 81 74 83 82 82 80 78 75 73 74 75 75 75 77 75 79 80 81 81 79 75 72 68 67
95 94 93 92 91 91 91 91 86 84 85 85 84 83 84 85 83 83 87 88 90 88 83 83 82 81 80 75 74 76 79 78 77 78 78 78 77 77 76 75 72 65 66
94 94 96 94 92 92 92 92 88 86 86 87 86 83 83 83 82 82 84 87 86 89 86 87 86 83 81 80 78 73 72 72 73 73 74 73 75 74 78 78 73 70 66
96 97 97 95 95 95 94 94 90 87 87 88 88 85 85 85 84 85 84 86 86 85 86 85 86 84 82 80 79 78 80 76 81 83 81 80 81 77 78 76 76 72 72
97 97 98 98 98 98 96 93 90 88 87 88 88 86 86 85 86 85 84 84 84 84 84 83 82 82 81 80 83 82 82 81 80 81 81 81 81 79 75 77 72 74 74
97 99 99 98 98 98 96 93 90 90 89 87 88 87 86 84 83 85 86 86 83 84 84 84 84 81 82 84 83 82 84 82 80 80 79 79 80 79 78 76 74 74 75
96 97 97 95 95 95 94 92 91 92 92 86 88 88 84 84 82 86 86 85 84 84 85 84 82 81 82 83 83 82 83 82 82 81 79 79 79 78 79 75 74 73 74
93 94 93 93 93 93 92 92 93 95 94 87 87 89 86 84 86 86 86 84 85 85 85 84 83 84 84 83 83 82 81 81 82 80 80 81 79 77 77 75 75 74 74
91 92 92 91 91 91 91 93 94 94 94 90 89 89 89 88 87 86 86 85 85 85 85 82 82 81 84 83 82 82 81 81 81 82 81 79 72 67 69 74 75 72 72
91 92 92 92 90 90 90 92 92 92 94 90 89 88 87 85 85 84 85 85 81 82 80 82 81 80 80 64 69 71 82 81 81 80 81 79 71 68 66 67 65 71 71
90 91 92 92 91 91 91 91 91 92 91 87 89 88 86 85 82 83 83 82 81 79 79 79 80 79 77 62 63 66 71 80 81 80 80 81 81 74 77 66 65 66 65
86 88 92 93 93 95 93 92 92 89 88 85 88 86 85 84 84 83 82 82 81 79 78 78 78 77 76 60 59 62 68 74 79 80 81 80 79 76 76 78 77 75 74
84 86 90 92 93 94 93 91 89 85 86 86 86 86 85 84 80 80 81 81 80 78 78 78 77 76 73 57 56 59 67 71 75 78 79 79 79 63 64 77 77 74 73
85 84 87 91 92 91 92 88 83 82 82 86 86 86 85 84 83 81 79 80 78 78 82 80 78 70 74 55 54 57 67 66 74 74 75 64 64 60 59 73 75 73 74
85 82 85 88 87 90 86 84 83 83 86 89 87 86 85 83 83 82 79 78 79 81 79 77 77 76 73 70 53 52 63 65 66 71 74 74 57 55 55 54 72 70 68
83 81 78 81 81 84 83 82 81 82 88 87 85 84 83 84 83 79 79 80 79 76 75 75 75 79 77 60 54 52 53 62 66 66 70 69 54 52 52 56 59 57 62
81 82 79 76 80 81 80 78 80 81 82 81 78 79 78 80 79 77 74 76 75 78 79 78 78 80 74 77 54 51 51 53 65 68 58 57 50 50 52 52 54 53 73
79 82 80 77 78 78 79 76 74 69 74 69 69 71 73 75 75 79 78 78 81 77 74 77 76 77 74 76 73 72 70 57 63 65 70 67 61 61 64 65 60 68 72
77 80 79 78 79 77 75 77 71 74 72 74 71 74 77 75 73 77 78 81 76 72 78 79 79 78 77 71 54 55 64 63 61 62 73 72 71 70 70 71 71 68 71
68 70 72 76 76 79 78 78 78 76 75 72 78 79 79 78 78 77 76 54 55 51 49 47 59 75 53 46 45 43 43 43 45 58 60 60 62 64 66 68 73 73 69

GFSMW_sfc_temp_072.txt.gz
Temp
97 95 93 91 89 88 85 82 82 80 80 80 79 80 79 79 80 82 79 78 76 79 78 78 77 78 76 75 77 77 75 77 78 71 74 75 79 82 81 83 80 75 75
94 91 90 89 87 86 84 83 82 80 81 82 80 82 81 83 84 82 80 80 78 75 76 77 76 77 77 76 76 76 74 76 76 73 72 69 74 78 79 78 78 79 76
91 88 87 87 87 85 84 82 82 81 81 82 82 80 80 80 79 80 80 79 80 77 74 74 78 75 75 74 74 74 74 71 72 76 71 67 66 70 74 73 74 76 77
94 89 86 85 87 87 86 83 82 81 83 84 81 79 76 74 76 77 79 79 81 80 76 75 76 75 74 73 72 72 71 71 69 73 73 74 73 67 64 68 68 73 75
96 90 88 87 88 89 87 85 83 83 84 83 81 82 79 77 80 77 77 80 79 80 80 76 76 74 73 73 73 73 73 72 72 71 72 72 71 70 66 64 66 69 70
96 93 91 89 88 91 89 87 82 81 83 83 82 82 80 81 81 76 76 78 79 78 77 77 75 73 72 71 72 73 73 72 73 73 69 68 68 67 66 66 68 68 66
96 91 90 87 87 88 89 88 82 80 83 83 80 82 82 82 80 78 77 76 74 76 76 75 75 75 74 74 72 73 72 72 73 72 70 71 71 70 70 69 69 67 66
95 93 90 88 88 89 89 89 83 81 82 83 82 82 81 81 81 79 77 76 74 75 77 77 77 77 76 75 75 73 72 73 72 73 73 72 74 73 72 70 68 65 65
94 93 93 91 89 89 88 89 83 83 83 83 81 80 81 81 81 81 81 79 80 77 79 79 77 77 78 75 74 72 72 71 71 71 72 72 73 73 72 71 70 67 62
94 94 94 93 92 91 90 91 86 84 83 84 80 82 81 81 81 81 79 81 81 81 82 84 82 79 78 77 75 74 74 72 71 71 71 71 72 73 74 73 72 70 68
94 95 96 94 94 94 93 91 86 85 84 85 81 81 82 82 82 81 81 82 83 82 83 82 82 81 79 77 75 75 75 73 74 75 74 75 75 72 74 73 72 70 69
96 96 96 95 95 94 93 90 87 85 85 85 82 81 81 83 82 82 82 83 81 82 82 82 80 81 80 79 78 77 78 77 76 75 76 75 75 75 73 71 71 70 69
95 96 95 93 92 92 90 88 88 88 87 86 83 81 80 82 80 81 82 82 81 81 82 82 81 78 80 78 79 79 78 78 78 76 75 75 75 73 73 72 71 70 67
93 92 91 89 91 90 89 89 89 91 88 86 84 82 82 81 81 81 82 81 81 81 79 79 79 78 79 81 80 79 78 77 78 77 76 76 74 72 73 73 71 69 68
91 91 90 88 89 89 88 89 90 90 89 84 84 84 81 81 79 81 82 81 80 80 79 78 78 79 78 76 74 79 78 77 76 76 77 73 70 67 67 70 71 70 68
90 91 91 89 88 88 88 89 89 89 87 84 84 85 84 80 79 79 81 81 80 81 81 79 77 78 77 66 69 71 72 72 75 73 75 71 68 66 67 67 65 70 69
89 90 92 91 89 88 88 88 88 89 88 86 86 84 83 81 80 80 80 80 78 79 78 78 77 75 77 64 64 66 69 69 71 73 74 77 77 72 71 66 66 66 66
84 85 87 88 92 93 90 89 89 87 87 85 84 83 82 80 78 79 79 78 78 78 77 77 77 76 69 61 61 62 69 67 69 72 75 74 73 70 73 71 71 69 69
83 82 86 88 88 91 91 87 86 82 84 84 82 81 82 80 79 78 78 78 76 76 76 77 76 76 69 59 58 62 68 66 67 68 70 71 70 64 65 70 69 69 66
84 81 82 86 88 88 89 86 83 79 80 83 81 82 82 80 79 79 78 77 76 75 78 77 77 71 72 56 55 60 67 65 64 66 69 66 67 60 61 67 67 66 68
82 83 81 80 81 82 81 83 82 78 83 82 79 79 80 80 79 78 77 76 76 76 76 75 76 75 73 63 53 53 68 66 65 64 63 65 58 56 55 54 67 63 62
79 81 80 78 79 80 79 77 76 78 79 78 78 75 78 82 80 77 75 76 75 75 74 74 74 75 72 60 53 52 55 62 69 67 63 62 53 54 54 57 58 58 61
75 78 78 78 79 79 79 76 71 67 67 61 61 72 75 77 77 76 74 76 75 76 73 73 73 74 75 69 53 51 51 53 63 69 62 58 52 51 52 53 55 55 66
72 73 73 75 76 79 78 73 68 69 64 61 60 69 71 73 74 71 72 72 74 74 76 74 71 71 73 72 68 67 62 55 60 64 65 63 60 58 62 61 57 62 64
67 67 67 68 71 72 78 73 72 69 65 66 66 68 70 69 70 71 71 76 63 70 74 75 75 73 68 62 54 62 65 62 55 60 68 67 66 66 67 66 67 62 62
65 63 62 61 62 67 67 68 73 73 70 69 68 69 71 69 70 69 67 57 57 51 47 47 64 61 52 45 44 44 44 45 46 62 62 61 61 61 61 61 62 64 64

GFSMW_sfc_temp_075.txt.gz
Temp
85 86 86 84 80 79 76 74 74 73 73 72 71 71 71 72 73 74 75 75 73 75 73 71 71 71 70 70 72 72 71 70 70 68 68 70 74 71 76 75 74 73 75
83 84 82 83 80 77 75 74 74 73 72 72 72 73 73 73 74 75 74 74 74 73 73 72 71 73 71 71 71 71 69 70 70 67 66 65 67 70 71 71 71 71 74
80 81 80 79 79 77 76 75 73 73 73 74 74 72 72 72 72 71 72 74 74 73 73 73 72 72 72 70 71 70 69 67 69 70 66 62 61 64 68 68 67 69 71
82 81 79 78 79 78 78 75 74 73 74 75 73 71 69 68 70 71 72 72 75 74 73 73 73 71 71 70 70 71 69 68 66 68 70 69 68 62 61 66 66 69 70
82 79 79 80 81 81 79 77 75 73 75 75 73 72 71 70 71 71 72 72 72 73 73 71 71 71 71 71 71 70 69 68 67 67 68 69 68 67 63 61 63 68 67
81 80 81 81 80 82 80 78 75 73 75 75 75 73 71 71 70 70 69 70 71 71 72 71 70 71 71 70 70 71 70 70 69 69 68 67 65 65 65 64 64 65 65
81 79 78 79 79 80 79 78 75 73 75 75 74 74 73 72 71 70 69 70 69 70 70 71 69 68 69 69 70 70 71 70 69 69 68 69 69 68 67 66 65 64 65
83 80 80 80 81 81 80 79 75 72 74 75 74 74 74 72 72 71 70 70 70 70 72 71 71 71 71 71 70 69 70 71 70 70 68 69 69 69 67 66 65 63 63
83 82 82 82 82 81 80 78 75 75 74 74 74 73 73 73 72 72 72 72 71 73 73 73 72 72 72 72 71 69 69 69 69 70 69 69 70 70 69 69 68 65 61
83 83 82 82 82 81 80 78 77 76 75 74 74 74 74 74 74 73 72 73 73 74 73 74 73 72 72 72 70 69 70 68 68 69 69 70 70 70 69 69 68 68 64
85 83 83 83 84 84 82 79 77 76 76 75 75 74 74 74 73 73 73 73 73 73 74 74 72 72 71 71 70 69 69 69 69 70 70 70 70 69 68 68 68 68 67
85 86 84 84 84 84 83 78 78 77 77 77 76 76 75 74 73 73 73 74 72 73 73 74 72 72 73 72 73 73 72 70 69 70 70 70 72 69 68 68 68 67 67
83 82 84 83 83 83 82 79 79 79 78 76 77 75 75 75 73 73 74 73 73 73 73 73 72 72 72 73 74 73 72 73 71 73 73 71 69 68 68 68 67 66 66
80 76 80 80 80 81 80 80 80 81 80 78 76 74 74 74 74 74 74 73 73 72 72 73 75 75 74 74 74 73 71 71 71 73 73 70 68 66 67 67 66 65 64
78 78 77 77 77 77 79 81 82 82 82 79 77 76 76 74 73 73 73 73 73 73 75 75 74 74 71 72 71 73 70 69 70 71 69 68 67 67 66 66 67 67 63
81 79 80 79 78 80 78 80 80 79 82 80 79 75 76 75 73 73 73 73 72 72 71 70 71 69 70 66 68 68 67 67 68 67 67 66 66 66 66 66 66 66 65
78 74 70 74 80 79 76 78 78 79 79 80 79 75 76 74 73 73 75 71 71 71 70 70 70 69 66 63 64 66 64 65 66 68 67 68 70 66 64 65 65 65 66
76 75 75 75 74 76 78 81 82 79 77 75 76 76 76 74 73 75 75 71 70 70 70 69 69 68 65 61 61 63 63 63 67 69 69 66 66 65 64 62 63 64 66
73 73 75 75 76 75 76 77 78 81 80 77 77 78 78 75 72 73 71 71 70 70 69 69 69 67 62 58 58 61 61 62 64 67 68 68 65 63 63 66 64 62 61
73 73 73 74 73 73 75 74 72 75 74 78 77 77 76 73 72 73 72 71 70 70 69 69 69 66 64 55 55 59 60 60 61 63 66 65 65 60 60 63 62 62 62
71 73 72 71 71 72 72 71 71 69 71 72 69 64 62 62 69 71 71 70 70 68 68 69 67 67 65 60 52 53 61 60 61 61 60 63 58 57 56 59 62 60 60
68 68 67 68 70 71 71 69 68 66 66 65 63 62 61 64 63 64 68 70 67 67 67 67 68 67 65 60 52 52 54 61 62 60 59 59 53 54 54 55 58 57 59
62 63 62 63 66 68 67 68 65 66 63 63 60 62 61 64 63 63 64 68 69 67 66 66 66 65 64 59 54 52 51 53 60 61 59 54 51 52 53 54 55 55 57
60 63 63 60 60 63 64 69 66 64 61 59 60 61 62 65 60 61 65 67 67 66 65 66 64 66 65 60 57 56 54 55 56 58 57 57 57 56 57 58 55 58 57
59 59 58 59 60 61 60 62 64 63 61 59 60 60 60 62 66 66 65 66 62 63 65 64 65 65 63 60 56 57 60 59 57 58 61 57 56 56 57 59 58 56 56
58 57 57 57 57 60 60 60 61 62 66 64 63 62 62 65 65 62 60 54 56 52 51 53 58 54 51 45 45 45 45 46 48 57 59 57 59 60 60 60 61 61 60